Flag for U.S.A. Weather past 2 weeks in Independence, Missouri, U.S.A.

Now
91 °F

Sunny.


Feels Like: 98 °F
Forecast: 75 / 93 °F
Wind: 10 mph from South

Location: Lee's Summit Municipal Airport

Current Time: Aug 20, 2014 at 5:55:47 PM

Latest Report: Aug 20, 2014 at 4:53 PM


Visibility: 10 mi

Pressure: 29.83 "Hg

Humidity: 52%

Dew point: 71 °F

Location of IndependenceLocation

Historic Weather in Independence — Graph

°F

Independence temperature yesterday

Maximum temperature yesterday: 92 °F (at 4:53 PM)
Minimum temperature yesterday: 73 °F (at 5:53 AM)
Average temperature yesterday: 81 °F

Past Weeks' High & Low Weather Summary

 TemperatureHumidityPressure
High92 °F (Aug 19, 4:53 PM)100% (Aug 11, 6:53 AM)30.16 "Hg (Aug 11, 6:53 AM)
Low58 °F (Aug 13, 5:53 AM)41% (Aug 13, 3:53 PM)29.72 "Hg (Aug 19, 5:53 AM)
Average74 °F77%29.95 "Hg
* Reported Aug 5 4:53 PM — Aug 20 4:53 PM, Independence, Weather by CustomWeather, © 2014

Note: Actual official high and low records may vary slightly from our data, if they occured in-between our weather recording intervals... More about our weather records

Advertising

Independence weather history for previous 24 hours

 ConditionsComfort  
Time TempWeatherWind HumidityBarometerVisibility
4:53 PM
Aug 20
91 °FSunny.10 mph52%29.83 "Hg10 mi
3:53 PM90 °FBroken clouds.7 mph52%29.83 "Hg10 mi
2:53 PM91 °FPassing clouds.13 mph49%29.85 "Hg10 mi
1:53 PM90 °FPassing clouds.12 mph52%29.87 "Hg10 mi
12:53 PM89 °FPassing clouds.9 mph53%29.88 "Hg10 mi
11:53 AM87 °FSunny.9 mph59%29.88 "Hg10 mi
10:53 AM85 °FSunny.9 mph63%29.88 "Hg10 mi
9:53 AM82 °FSunny.12 mph72%29.87 "Hg10 mi
8:53 AM79 °FSunny.13 mph77%29.86 "Hg10 mi
7:53 AM75 °FSunny.8 mph85%29.85 "Hg10 mi
6:53 AM76 °FClear.6 mph82%29.84 "Hg10 mi
5:53 AM75 °FClear.7 mph85%29.81 "Hg10 mi
4:53 AM77 °FClear.9 mph79%29.80 "Hg10 mi
3:53 AM78 °FClear.10 mph74%29.81 "Hg10 mi
2:53 AM77 °FClear.9 mph77%29.82 "Hg10 mi
1:53 AM79 °FClear.9 mph74%29.81 "Hg10 mi
12:53 AM80 °FClear.9 mph71%29.81 "Hg10 mi
11:53 PM
Aug 19
81 °FClear.7 mph72%29.81 "Hg10 mi
10:53 PM82 °FClear.9 mph74%29.80 "Hg10 mi
9:53 PM82 °FClear.5 mph74%29.79 "Hg10 mi
8:53 PM84 °FSunny.5 mph72%29.77 "Hg10 mi
7:53 PM86 °FSunny.5 mph65%29.76 "Hg10 mi
6:53 PM89 °FSunny.5 mph59%29.76 "Hg10 mi
5:53 PM91 °FSunny.8 mph49%29.76 "Hg10 mi
Weather by CustomWeather, © 2014

See weather overviewHow to use our weather pages